Location: Malvern Link
(52.1333°N, 2.3000°W)
Time: 11:27:03
(UTC+00:00)

Meteor 2-5 Rocket - Pass Details

Date: 18 September 2020
Orbit: 833 x 912 km, 81.2° (Epoch: 30 October)

Event Time Altitude Azimuth Distance (km) Brightness Sun altitude
Rises 20:19:27 0° 347° (NNW) 3,412 7.5 -18.9°
Reaches altitude 10° 20:21:52 10° 349° (N) 2,481 6.7 -19.2°
Maximum altitude 20:27:30 79° 76° (ENE) 880 3.6 -20.0°
Enters shadow 20:30:20 31° 159° (SSE) 1,466 4.5 -20.4°
